Weather History for GMAD - April, 2013

Change the Weather History Date:

Tuesday, April 2, 2013

  Actual Average Record
Temperature  
Mean Temperature 64 °F -  
Max Temperature 76 °F - - ()
Min Temperature 51 °F - - ()
Degree Days  
Heating Degree Days 2    
Growing Degree Days 14 (Base 50)    
Moisture  
Dew Point 51 °F    
Average Humidity 66    
Maximum Humidity 94    
Minimum Humidity 29    
Precipitation  
Precipitation 0.00 in - - ()
Sea Level Pressure  
Sea Level Pressure 29.93 in    
Wind  
Wind Speed 6 mph ()    
Max Wind Speed 16 mph    
Max Gust Speed -    
Visibility 6.1 miles    
Events      
T = Trace of Precipitation, MM = Missing Value Source: Averaged Metar Reports

Daily Weather History Graph

Daily Weather History Graph

Search for Another Location

Airport or City:

Trip Planner

Search our weather history database for the weather conditions in past years. The results will help you decide how hot, cold, wet, or windy it might be!

Date:

Astronomy

Apr. 02, 2013 Rise Set
Actual Time 6:25 AM WET 6:57 PM WET
Civil Twilight 6:01 AM WET 7:21 PM WET
Nautical Twilight 5:33 AM WET 7:49 PM WET
Astronomical Twilight 5:04 AM WET 8:18 PM WET
Moon 12:32 AM WET (4/2) 11:18 AM WET (4/2)
Length of Visible Light 13h 19m
Length of Day
12h 31m
Waning Gibbous, 58% of the Moon is Illuminated
Apr 2
Waning Gibbous
Apr 3
Last Quarter
Apr 10
New
Apr 18
First Quarter
Apr 25
Full

Hourly Weather History & Observations

Time (WET) Temp. Dew Point Humidity Pressure Visibility Wind Dir Wind Speed Gust Speed Precip Events Conditions
12:00 AM 60 °F 58 °F 89% 29.99 in 6 mi SSW 8.1 mph - -   Partly Cloudy
12:00 AM 59.0 °F 57.2 °F 94% 29.98 in 6.2 mi SSW 8.1 mph - N/A   Scattered Clouds
3:00 AM 58 °F 55 °F 87% 29.95 in 6 mi South 8.1 mph - -   Partly Cloudy
4:00 AM - - N/A% - 6.2 mi North - - N/A   Scattered Clouds
5:00 AM 55.4 °F 53.6 °F 94% 29.92 in 6.2 mi South 1.2 mph - N/A   Scattered Clouds
6:00 AM 52 °F 50 °F 90% 29.95 in - Calm Calm - -  
6:00 AM 51.8 °F 50.0 °F 94% 29.95 in 6.2 mi Calm Calm - N/A   Partly Cloudy
7:00 AM 53.6 °F 51.8 °F 94% 29.95 in 6.2 mi Calm Calm - N/A   Scattered Clouds
8:00 AM 59.0 °F 57.2 °F 94% 29.98 in 6.2 mi East 4.6 mph - N/A   Scattered Clouds
9:00 AM 64 °F 55 °F 66% 29.97 in - East 6.9 mph - -  
9:00 AM 59.0 °F 57.2 °F 94% 29.98 in 6.2 mi East 5.8 mph - N/A   Scattered Clouds
10:00 AM 64.4 °F 55.4 °F 73% 29.95 in 6.2 mi ENE 5.8 mph - N/A   Scattered Clouds
11:00 AM 71.6 °F 50.0 °F 46% 29.95 in 6.2 mi East 8.1 mph - N/A   Scattered Clouds
12:00 PM 72 °F 49 °F 32% 29.93 in 6 mi ENE 2.3 mph - -   Partly Cloudy
12:00 PM 71.6 °F 48.2 °F 43% 29.95 in 6.2 mi NE 3.5 mph - N/A   Scattered Clouds
1:00 PM 75.2 °F 48.2 °F 38% 29.89 in 6.2 mi Calm Calm - N/A   Partly Cloudy
2:00 PM 73.4 °F 44.6 °F 36% 29.89 in - West 13.8 mph - N/A   Clear
3:00 PM 71 °F 46 °F 29% 29.88 in 6 mi West 16.1 mph - -  
3:00 PM 71.6 °F 46.4 °F 41% 29.89 in - West 16.1 mph - N/A   Clear
4:00 PM 71.6 °F 46.4 °F 41% 29.86 in - West 16.1 mph - N/A   Clear
5:00 PM 68.0 °F 46.4 °F 46% 29.86 in - West 13.8 mph - N/A   Clear
6:00 PM 66 °F 51 °F 49% 29.88 in 6 mi West 11.5 mph - -  
6:00 PM 66.2 °F 51.8 °F 60% 29.86 in - West 11.5 mph - N/A   Clear
7:00 PM 60.8 °F 50.0 °F 68% 29.89 in - West 9.2 mph - N/A   Clear
8:00 PM 60.8 °F 50.0 °F 68% 29.89 in - WSW 5.8 mph - N/A   Clear
9:00 PM 58 °F 49 °F 62% 29.94 in 6 mi Calm Calm - -  
9:00 PM 57.2 °F 48.2 °F 72% 29.92 in - Calm Calm - N/A   Clear
10:00 PM 55.4 °F 48.2 °F 77% 29.95 in - South 4.6 mph - N/A   Clear
11:00 PM 53.6 °F 48.2 °F 82% 29.95 in - South 4.6 mph - N/A   Unknown